Content
SEND FEEDBACK

Daily
Averages
Monthly
Summary
United States of America

MILWAUKEE, WISCONSIN


Home > North America > United States > Wisconsin
Elevation: 672 feet     Latitude: 42 57N     Longitude: 087 54W

WEATHER
 
SELECT A DAY
Number of Records: 199,809;   Date Range: 1/1/95 - 8/12/14
 
SHARE

PRINT THIS DATA

[ ← Previous Day ]
WEATHER ALMANAC - MAY 10, 2013
[ Next Day → ]
[ °C ]   °F
Weather ElementAverageHighLow
Temperature42.1 °F43 °F (11:52 pm)41 °F (1:52 am)
Dewpoint38.7 °F41 °F (4:52 am)36 °F (9:52 pm)
Humidity87.8 %96 % (4:52 am)79 % (9:52 pm)
Barometer29.94 in30.00 in (2:52 pm)29.84 in (3:52 am)
Wind Speed16.1 mph24.2 mph (5:52 am)
Wind Gust38 mph (7:52 am)
Weather ElementAverage
Visibility7.9 mi
Wind DirectionESE (96.4 °)

Weather ElementTotal
Precipitation1.06 in
Heating Degree Days23 (Base 65)
Averaged from 28 records on May 10, 2013
WEATHER CONDITIONS BREAKOUT
WIND DIRECTION BREAKOUT
WEATHER BY HOUR - MAY 10, 2013
[ °C ]   °F
Local TimeTemperatureDewpointHumidityBarometerVisibilityWind DirectionWind SpeedGust SpeedPrecipitationEventsConditions
1:52 AM41.0 °F39.0 °F93 %29.88 in4.0 miNNE (20°)18.4 mph32.2 mph0.04 inRainRain
2:52 AM41.0 °F39.0 °F93 %29.86 in4.0 miNorth (10°)20.7 mph31.1 mph0.10 inRainRain
3:52 AM42.1 °F39.9 °F92 %29.84 in4.0 miNorth (10°)19.6 mph29.9 mph0.10 inRainLight Rain
4:52 AM42.1 °F41.0 °F96 %29.85 in4.0 miNorth (360°)17.3 mph28.8 mph0.15 inRainLight Rain
4:55 AM42.8 °F41.0 °F93 %29.84 in1.8 miNorth (10°)17.3 mph28.8 mph0.01 inRainLight Rain
5:11 AM42.8 °F41.0 °F93 %29.85 in2.5 miNorth (360°)18.4 mph26.5 mph0.04 inRainRain
5:36 AM42.8 °F41.0 °F93 %29.85 in3.0 miNNE (20°)21.9 mph31.1 mph0.17 inRainHeavy Rain
5:52 AM42.1 °F39.9 °F92 %29.86 in3.0 miNorth (10°)24.2 mph36.8 mph0.28 inRainHeavy Rain
6:52 AM42.1 °F39.9 °F92 %29.87 in4.0 miNorth (10°)19.6 mph35.7 mph0.15 inRainLight Rain
7:52 AM42.1 °F39.9 °F92 %29.89 in10.0 miNNE (20°)19.6 mph38.0 mph0.02 inOvercast
8:52 AM42.1 °F39.9 °F92 %29.91 in10.0 miNorth (10°)24.2 mph32.2 mph0.00 inRainLight Rain
9:52 AM42.1 °F39.0 °F89 %29.94 in10.0 miNorth (360°)18.4 mph32.2 mph0.00 inOvercast
10:52 AM42.1 °F39.0 °F89 %29.96 in10.0 miNorth (10°)23.0 mph31.1 mph0.00 inOvercast
11:52 AM42.1 °F37.9 °F85 %29.98 in10.0 miNNE (20°)21.9 mph34.5 mphOvercast
12:52 PM42.1 °F37.9 °F85 %29.98 in10.0 miNorth (10°)21.9 mph32.2 mphOvercast
1:52 PM42.1 °F37.9 °F85 %29.99 in10.0 miNorth (10°)21.9 mph27.6 mphOvercast
2:52 PM42.1 °F37.9 °F85 %30.00 in10.0 miNNE (20°)17.3 mph27.6 mphOvercast
3:52 PM42.1 °F37.9 °F85 %29.99 in10.0 miNNE (20°)19.6 mph26.5 mphOvercast
4:52 PM41.0 °F37.9 °F89 %29.99 in10.0 miNNE (20°)17.3 mph24.2 mphOvercast
5:52 PM41.0 °F37.0 °F86 %29.99 in10.0 miNNE (20°)13.8 mph21.9 mphOvercast
6:48 PM42.8 °F37.4 °F81 %29.97 in10.0 miNNE (20°)13.8 mphOvercast
6:52 PM42.1 °F37.9 °F85 %29.99 in10.0 miNNE (20°)12.7 mphOvercast
7:52 PM42.1 °F37.0 °F82 %30.00 in10.0 miNNE (20°)10.4 mphOvercast
8:52 PM42.1 °F37.9 °F85 %30.00 in10.0 miNorth (350°)4.6 mphOvercast
9:52 PM42.1 °F36.0 °F79 %30.00 in10.0 miNorth (350°)3.5 mphMostly Cloudy
10:52 PM42.1 °F37.9 °F85 %29.99 in10.0 miNW (310°)3.5 mphOvercast
11:33 PM42.8 °F37.4 °F81 %29.97 in10.0 miCalmOvercast
11:52 PM43.0 °F37.9 °F82 %29.98 in10.0 miWNW (300°)4.6 mphOvercast
Hourly data recorded from KMKE, located miles away from Milwaukee, Wisconsin







STORIES FROM OUR PARTNERS